TimeCST,TemperatureF,Dew PointF,Humidity,Sea Level PressureIn,VisibilityMPH,Wind Direction,Wind SpeedMPH,Gust SpeedMPH,PrecipitationIn,Events,Conditions,WindDirDegrees,DateUTC
12:14 AM,26.6,24.8,93,30.02,5.0,WSW,4.6,-,N/A,,Mostly Cloudy,250,2013-02-03 06:14:00
12:55 AM,26.1,25.0,96,30.07,7.0,West,9.2,-,N/A,,Clear,280,2013-02-03 06:55:00
1:55 AM,28.9,25.0,85,30.08,10.0,West,11.5,-,N/A,,Scattered Clouds,280,2013-02-03 07:55:00
2:55 AM,28.0,24.1,85,30.08,10.0,West,11.5,-,N/A,,Scattered Clouds,280,2013-02-03 08:55:00
3:41 AM,30.2,24.8,80,30.04,10.0,WNW,15.0,21.9,N/A,,Mostly Cloudy,300,2013-02-03 09:41:00
3:55 AM,30.0,24.1,79,30.09,10.0,WNW,16.1,-,N/A,,Overcast,290,2013-02-03 09:55:00
4:43 AM,26.6,17.6,69,30.07,10.0,NW,18.4,31.1,N/A,,Scattered Clouds,310,2013-02-03 10:43:00
4:55 AM,25.0,18.0,75,30.12,10.0,NW,18.4,31.1,N/A,,Scattered Clouds,310,2013-02-03 10:55:00
5:02 AM,24.8,17.6,74,30.08,10.0,NW,19.6,29.9,N/A,,Mostly Cloudy,310,2013-02-03 11:02:00
5:55 AM,25.0,17.1,72,30.14,10.0,WNW,17.3,23.0,N/A,,Overcast,300,2013-02-03 11:55:00
6:55 AM,24.1,16.0,71,30.18,10.0,NW,12.7,20.7,N/A,,Overcast,310,2013-02-03 12:55:00
7:35 AM,21.2,15.8,80,30.15,10.0,NW,10.4,-,N/A,,Scattered Clouds,310,2013-02-03 13:35:00
7:55 AM,21.9,15.1,75,30.22,10.0,NW,9.2,18.4,N/A,,Partly Cloudy,310,2013-02-03 13:55:00
8:55 AM,23.0,12.9,65,30.24,10.0,WNW,11.5,23.0,N/A,,Clear,300,2013-02-03 14:55:00
9:55 AM,24.1,14.0,65,30.25,10.0,WNW,12.7,20.7,N/A,,Clear,300,2013-02-03 15:55:00
10:55 AM,27.0,15.1,61,30.26,10.0,WNW,10.4,-,N/A,,Clear,290,2013-02-03 16:55:00
11:55 AM,30.0,15.1,54,30.23,10.0,West,8.1,-,N/A,,Clear,280,2013-02-03 17:55:00
12:55 PM,30.9,15.1,52,30.21,10.0,West,6.9,-,N/A,,Clear,260,2013-02-03 18:55:00
1:55 PM,33.1,14.0,46,30.18,10.0,WSW,6.9,-,N/A,,Clear,250,2013-02-03 19:55:00
2:55 PM,33.1,15.1,48,30.14,10.0,North,-9999.0,-,N/A,,Clear,0,2013-02-03 20:55:00
3:55 PM,33.1,15.1,48,30.11,10.0,South,9.2,-,N/A,,Clear,190,2013-02-03 21:55:00
4:55 PM,30.9,16.0,54,30.09,10.0,South,6.9,-,N/A,,Clear,190,2013-02-03 22:55:00
5:55 PM,26.1,18.0,71,30.08,10.0,South,8.1,-,N/A,,Clear,180,2013-02-03 23:55:00
6:55 PM,24.1,18.0,77,30.06,10.0,SSE,4.6,-,N/A,,Clear,150,2013-02-04 00:55:00
7:55 PM,24.1,18.0,77,30.04,10.0,SSE,9.2,-,N/A,,Clear,160,2013-02-04 01:55:00
8:55 PM,23.0,17.1,78,30.02,10.0,South,6.9,-,N/A,,Clear,170,2013-02-04 02:55:00
9:55 PM,24.1,17.1,75,30.00,10.0,South,5.8,-,N/A,,Clear,180,2013-02-04 03:55:00
10:55 PM,23.0,17.1,78,29.97,10.0,South,6.9,-,N/A,,Clear,180,2013-02-04 04:55:00
11:55 PM,27.0,18.0,69,29.93,10.0,South,6.9,-,N/A,,Clear,180,2013-02-04 05:55:00